Probability
0 0 6 6 6 10 6 6 6 0 0 0 0 0 0 0 0 0 0 0 0 0 0 0 0 0 0 0 3 6 3 6 3 6 6 3 6 6 13 13 16 6 10
3 3 3 6 10 6 10 6 6 0 0 0 0 0 0 0 0 0 0 0 0 0 0 0 0 0 0 0 3 10 13 3 0 6 10 6 6 6 0 19 6 3 16
3 3 0 0 6 6 6 6 6 0 0 0 0 0 0 0 0 0 0 0 0 0 0 0 0 0 0 3 3 10 10 10 3 3 3 3 0 0 3 3 3 13 16
3 3 3 0 3 6 6 6 6 3 3 3 0 0 0 0 0 0 0 0 0 0 0 0 0 0 0 3 0 3 10 13 13 6 3 3 3 3 0 0 3 6 0
0 3 3 0 0 3 3 3 0 0 0 0 0 0 0 0 0 0 0 0 0 0 0 0 0 0 0 0 3 0 6 13 10 6 6 3 6 0 0 0 3 3 6
0 3 3 0 0 0 3 3 0 0 0 0 0 0 0 0 0 0 0 0 0 0 0 0 0 0 0 0 3 3 0 6 6 16 10 10 10 6 0 0 6 6 6
0 3 0 0 0 0 3 3 3 0 0 0 0 0 0 0 0 0 0 0 0 0 0 0 0 0 0 0 0 3 3 6 6 10 13 10 6 3 6 3 3 6 3
0 3 3 0 0 0 0 3 3 0 0 0 0 0 0 0 0 0 0 0 0 0 0 0 0 0 0 0 0 0 3 3 3 0 3 6 3 3 6 3 0 3 0
0 0 3 3 0 0 0 0 3 0 0 0 0 0 0 0 0 0 0 0 0 0 0 0 0 0 0 0 0 3 3 6 3 3 0 3 3 3 3 3 6 3 0
0 0 0 3 3 0 0 0 0 0 0 0 0 0 0 0 0 0 0 0 0 0 0 0 0 0 0 0 3 3 0 3 3 10 0 0 0 0 0 0 3 10 6
0 0 0 0 0 0 0 0 0 0 0 0 0 0 0 0 0 0 0 0 0 0 0 0 0 0 0 0 3 3 3 3 0 0 0 0 0 0 0 0 3 6 6
0 0 0 0 0 0 0 0 0 0 0 0 0 0 0 0 0 0 0 0 0 0 0 0 0 0 0 0 0 0 0 0 0 0 0 0 0 0 0 0 0 3 3
0 0 0 0 0 0 0 0 0 0 0 0 0 0 0 0 0 0 0 0 0 0 0 0 0 0 0 0 0 0 0 0 0 0 0 0 0 0 3 0 0 3 0
0 0 0 0 0 0 0 0 0 0 0 0 0 0 0 0 0 0 0 0 0 0 0 0 0 0 0 0 0 0 0 0 0 0 0 0 0 0 0 0 0 0 3
0 0 0 0 0 0 0 0 0 0 0 0 0 0 0 0 0 0 0 0 0 0 0 0 0 0 0 0 0 0 0 0 0 0 0 0 0 0 0 0 0 0 0
0 0 0 0 0 0 0 0 0 0 0 0 0 0 0 0 0 0 0 0 0 0 0 0 0 0 0 0 0 0 0 0 3 3 3 0 0 0 0 0 0 0 0
0 0 0 0 0 0 0 0 0 0 0 0 0 0 0 0 0 0 0 0 0 0 0 0 0 0 0 0 0 0 0 3 3 3 3 0 0 0 0 0 0 0 0
0 0 0 0 0 0 0 0 0 0 0 0 0 0 0 0 0 0 0 0 0 0 0 0 0 0 0 0 0 0 0 0 0 0 0 0 0 0 0 0 0 0 0
0 0 0 0 0 0 0 0 0 0 0 0 0 0 0 0 0 0 0 0 0 0 0 0 0 0 0 0 0 0 0 0 0 0 0 0 0 0 0 0 0 0 0
0 0 0 0 0 0 0 0 0 0 0 0 0 0 0 0 0 0 0 0 0 0 0 0 0 0 0 0 0 0 0 0 0 0 0 0 0 0 0 0 0 0 0
0 0 0 0 0 0 0 0 0 0 0 0 0 0 0 0 0 0 0 0 0 0 0 0 0 0 0 0 0 0 0 0 0 0 0 0 0 0 0 0 0 0 0
0 0 0 0 0 0 0 0 0 0 0 0 0 0 0 0 0 0 0 0 0 0 0 0 0 0 0 0 0 0 0 0 0 0 0 0 0 0 0 0 0 0 0
0 0 0 0 0 0 0 0 0 0 0 0 0 0 0 0 0 0 0 0 0 0 0 0 0 0 0 0 0 0 0 0 0 0 0 0 0 0 0 0 0 0 0
0 0 0 0 0 0 0 0 0 0 0 0 0 0 0 0 0 0 0 0 0 0 0 0 0 0 0 0 0 0 0 0 0 0 0 0 0 0 0 0 0 0 0
0 0 0 0 0 0 0 0 0 0 0 0 0 0 0 0 0 0 0 0 0 0 0 0 0 0 0 0 0 0 0 0 0 0 0 0 0 0 0 0 0 0 0
0 0 0 0 0 0 0 0 0 0 0 0 0 0 0 0 0 0 0 0 0 0 0 0 0 0 0 0 0 0 0 0 0 0 0 0 0 0 0 0 0 0 0
Height
5857 5857 5857 5857 5856 5856 5856 5855 5854 5853 5852 5851 5849 5847 5845 5843 5841 5838 5835 5832 5829 5825 5822 5819 5816 5813 5810 5808 5806 5804 5803 5802 5802 5802 5802 5803 5805 5807 5809 5811 5814 5817 5819
5856 5855 5856 5855 5855 5855 5854 5854 5853 5852 5851 5849 5848 5846 5844 5842 5839 5837 5834 5831 5827 5824 5821 5817 5814 5811 5808 5806 5804 5802 5801 5800 5799 5799 5800 5801 5802 5804 5806 5808 5810 5813 5815
5854 5854 5854 5854 5854 5853 5853 5852 5851 5850 5849 5848 5846 5844 5842 5840 5838 5835 5832 5829 5826 5822 5819 5816 5812 5809 5807 5804 5802 5800 5799 5798 5797 5797 5797 5798 5799 5801 5803 5805 5807 5809 5812
5853 5853 5853 5853 5852 5852 5851 5850 5850 5849 5847 5846 5845 5843 5841 5839 5836 5834 5831 5828 5824 5821 5817 5814 5811 5808 5805 5802 5800 5798 5797 5796 5795 5795 5795 5795 5796 5798 5800 5802 5804 5806 5808
5852 5852 5851 5851 5851 5850 5849 5849 5848 5847 5846 5844 5843 5841 5839 5837 5835 5832 5829 5826 5823 5819 5816 5813 5809 5806 5803 5801 5799 5797 5795 5794 5793 5793 5793 5793 5794 5795 5797 5799 5801 5803 5805
5851 5850 5850 5849 5849 5848 5848 5847 5846 5845 5844 5843 5841 5840 5838 5835 5833 5830 5827 5824 5821 5818 5815 5811 5808 5805 5802 5800 5797 5795 5794 5793 5792 5792 5791 5792 5792 5793 5794 5796 5798 5800 5802
5849 5849 5848 5848 5847 5846 5846 5845 5844 5843 5842 5840 5839 5837 5835 5833 5831 5828 5825 5823 5820 5816 5813 5810 5807 5804 5801 5799 5797 5795 5793 5792 5791 5790 5790 5790 5790 5791 5792 5793 5795 5797 5799
5848 5847 5847 5846 5846 5845 5844 5843 5842 5841 5839 5838 5836 5835 5833 5831 5828 5826 5823 5821 5818 5815 5812 5809 5806 5803 5800 5798 5796 5794 5792 5791 5790 5789 5788 5788 5788 5789 5790 5791 5792 5794 5796
5846 5846 5845 5844 5844 5843 5842 5841 5840 5838 5837 5835 5834 5832 5830 5828 5826 5823 5821 5818 5816 5813 5810 5807 5805 5802 5799 5797 5795 5793 5791 5790 5788 5788 5787 5787 5786 5787 5788 5788 5790 5791 5793
5845 5844 5843 5842 5841 5841 5840 5838 5837 5836 5834 5833 5831 5829 5827 5825 5823 5821 5819 5816 5814 5811 5808 5806 5803 5800 5798 5796 5793 5792 5790 5788 5787 5786 5785 5784 5784 5784 5785 5786 5787 5788 5789
5842 5842 5841 5840 5839 5838 5837 5836 5835 5833 5831 5830 5828 5826 5824 5822 5820 5818 5816 5814 5811 5809 5806 5804 5801 5799 5796 5794 5792 5790 5788 5787 5785 5784 5783 5782 5782 5782 5783 5783 5784 5785 5786
5840 5839 5838 5837 5836 5835 5834 5833 5831 5830 5828 5826 5824 5823 5821 5819 5817 5815 5813 5810 5808 5806 5803 5801 5799 5796 5794 5792 5790 5788 5786 5785 5783 5782 5781 5781 5780 5780 5780 5781 5781 5782 5783
5837 5836 5835 5834 5833 5832 5831 5829 5828 5826 5824 5822 5821 5819 5817 5815 5813 5811 5809 5806 5804 5802 5800 5798 5796 5793 5791 5789 5787 5786 5784 5782 5781 5780 5779 5779 5778 5778 5778 5778 5779 5779 5780
5834 5833 5832 5831 5830 5828 5827 5825 5823 5822 5820 5818 5816 5814 5812 5810 5808 5806 5804 5802 5800 5798 5796 5794 5792 5790 5788 5786 5784 5782 5781 5780 5779 5778 5777 5776 5776 5775 5775 5775 5775 5776 5776
5829 5828 5827 5826 5825 5824 5822 5821 5819 5817 5815 5813 5811 5809 5807 5805 5803 5801 5799 5797 5794 5792 5791 5789 5787 5785 5783 5782 5780 5779 5777 5776 5775 5774 5773 5773 5773 5772 5772 5772 5772 5772 5772
5825 5824 5823 5822 5820 5819 5817 5815 5813 5811 5809 5807 5805 5803 5800 5798 5796 5794 5792 5790 5788 5786 5784 5783 5781 5780 5778 5777 5775 5774 5773 5772 5771 5770 5770 5769 5769 5769 5768 5768 5768 5769 5769
5820 5819 5818 5816 5815 5813 5811 5809 5807 5805 5803 5800 5798 5795 5793 5791 5789 5787 5785 5783 5781 5779 5777 5776 5774 5773 5772 5770 5769 5768 5767 5767 5766 5765 5765 5765 5765 5764 5764 5764 5764 5764 5764
5815 5814 5812 5810 5808 5806 5804 5802 5800 5797 5795 5792 5790 5787 5785 5782 5780 5778 5776 5774 5772 5770 5769 5767 5766 5765 5764 5763 5762 5761 5760 5760 5760 5760 5759 5759 5759 5759 5759 5759 5759 5760 5760
5809 5807 5805 5803 5800 5798 5796 5793 5791 5788 5785 5783 5780 5777 5774 5772 5770 5767 5765 5763 5762 5760 5759 5757 5756 5756 5755 5754 5753 5753 5752 5752 5752 5752 5753 5753 5753 5754 5754 5754 5754 5754 5755
5802 5800 5798 5795 5792 5790 5787 5784 5781 5778 5775 5772 5769 5766 5763 5760 5758 5755 5753 5751 5750 5749 5748 5747 5746 5745 5745 5744 5744 5743 5743 5744 5744 5745 5745 5746 5746 5747 5747 5748 5748 5748 5749
5795 5792 5789 5786 5783 5780 5777 5773 5770 5766 5763 5759 5756 5753 5750 5747 5744 5742 5740 5738 5736 5735 5735 5734 5734 5733 5733 5733 5733 5733 5733 5734 5735 5736 5737 5738 5739 5740 5740 5741 5742 5742 5742
5786 5783 5780 5777 5773 5769 5765 5761 5757 5753 5750 5746 5742 5739 5736 5733 5730 5727 5725 5723 5721 5721 5720 5720 5720 5720 5720 5721 5721 5722 5723 5724 5725 5726 5728 5729 5730 5731 5732 5734 5735 5735 5736
5776 5773 5769 5765 5761 5757 5753 5748 5744 5740 5736 5732 5728 5724 5721 5717 5714 5712 5710 5708 5706 5705 5704 5704 5705 5705 5706 5707 5708 5709 5711 5712 5714 5716 5718 5719 5721 5722 5724 5725 5726 5727 5728
5765 5762 5757 5753 5749 5744 5739 5735 5730 5725 5721 5717 5713 5709 5705 5702 5699 5696 5694 5691 5690 5689 5688 5688 5689 5690 5691 5693 5694 5696 5698 5700 5702 5705 5707 5708 5710 5712 5714 5716 5717 5719 5720
5754 5749 5745 5740 5735 5730 5725 5720 5715 5710 5706 5701 5697 5694 5690 5686 5683 5680 5678 5676 5674 5672 5672 5672 5673 5674 5676 5678 5679 5681 5684 5687 5690 5692 5695 5697 5700 5702 5704 5706 5708 5710 5711
5742 5737 5732 5727 5721 5716 5711 5705 5700 5695 5690 5686 5682 5678 5673 5670 5666 5663 5662 5660 5658 5657 5656 5656 5656 5658 5660 5662 5664 5667 5670 5673 5676 5679 5682 5686 5689 5691 5694 5696 5698 5700 5702
Wind_Speed
6 7 8 8 9 9 9 10 10 10 10 11 11 12 13 13 13 14 14 15 15 16 16 16 16 15 14 12 11 10 10 10 10 11 12 13 16 17 18 20 21 23 24
6 7 7 8 8 9 9 9 9 10 10 11 11 12 13 13 13 14 14 15 16 16 16 16 15 14 13 12 11 10 9 9 9 10 11 13 15 16 18 19 20 22 23
5 6 7 8 8 9 9 9 10 10 11 11 11 12 13 13 13 14 15 15 16 16 17 16 15 14 13 12 10 9 9 9 8 9 10 12 14 15 17 18 19 21 23
5 6 7 7 8 9 9 9 10 11 11 11 11 12 13 13 14 14 15 15 16 16 17 16 16 15 13 12 11 10 8 8 8 8 9 10 12 15 17 17 18 20 22
5 6 6 7 8 9 9 9 10 11 11 11 12 13 13 14 14 15 15 16 16 16 17 17 16 15 13 12 11 9 8 7 7 8 8 9 11 13 15 17 18 19 21
6 6 6 7 8 8 9 10 10 11 12 12 12 13 14 14 15 15 16 16 16 17 17 17 16 14 13 12 11 9 8 7 6 7 8 8 10 12 14 16 17 18 19
6 6 7 7 8 9 9 10 11 11 12 12 13 13 14 15 15 16 16 16 16 16 16 16 15 14 13 12 11 9 8 7 6 7 7 8 10 12 13 15 16 17 18
6 7 7 8 8 9 10 11 12 12 13 13 14 14 14 15 16 16 16 17 16 16 16 16 15 14 13 12 11 10 8 7 7 7 7 8 9 11 12 14 15 16 17
6 7 8 8 9 10 11 12 13 13 13 14 15 15 15 15 16 16 17 17 17 16 16 16 15 14 13 12 11 10 9 8 8 7 8 8 10 11 12 13 14 16 17
7 8 8 8 9 10 11 13 13 14 14 15 16 16 16 17 17 17 17 17 17 17 17 16 15 15 14 13 12 11 10 9 8 8 8 9 10 11 12 12 13 14 16
8 9 9 10 10 11 12 13 14 14 15 16 17 17 18 18 18 18 18 18 18 18 17 17 16 16 15 14 13 12 10 9 9 8 8 8 9 10 11 12 13 13 15
10 10 11 12 12 13 14 15 15 16 17 17 18 18 19 19 19 19 20 20 19 19 18 18 17 16 16 15 14 13 11 10 9 8 8 8 8 10 10 11 13 13 14
11 11 12 13 14 15 15 16 17 18 19 19 19 20 20 21 21 21 21 21 21 20 20 19 19 18 17 16 15 14 13 12 10 10 9 9 9 10 10 12 13 14 14
13 12 13 14 15 16 17 18 19 20 20 21 21 22 22 23 23 23 23 22 22 22 22 21 20 19 18 17 16 15 14 13 12 12 11 11 11 11 11 12 13 14 14
14 15 15 16 17 18 19 20 21 22 22 23 23 24 24 25 25 25 25 25 24 24 23 23 22 22 21 19 18 17 16 15 14 14 13 13 13 12 12 13 14 14 15
16 17 18 18 19 20 21 22 23 24 24 25 26 26 27 27 27 27 28 27 27 26 26 25 24 23 23 22 21 20 18 17 17 16 15 15 14 14 14 14 14 14 15
17 18 20 20 21 22 24 25 26 26 27 28 29 29 29 30 30 30 30 30 30 29 28 27 26 25 24 24 23 22 21 20 19 18 18 17 17 16 15 15 15 15 16
19 20 21 22 23 24 26 27 28 29 30 31 32 32 32 32 33 33 33 32 32 32 31 30 29 28 27 26 25 25 25 23 22 21 20 19 19 18 18 17 17 17 16
22 24 25 26 27 28 29 30 32 33 34 35 35 36 36 35 36 36 35 35 35 34 34 33 32 31 29 29 28 28 27 26 25 24 22 22 21 21 20 19 19 18 18
26 27 29 30 30 31 32 34 35 36 38 39 39 39 39 39 39 39 38 38 37 37 37 36 35 34 32 31 30 30 29 28 27 26 25 23 23 22 22 21 20 20 19
30 31 32 33 34 35 36 38 39 40 40 41 41 41 41 41 41 41 41 41 40 40 39 38 37 36 35 33 32 32 31 30 29 28 27 26 25 24 24 23 22 21 20
33 34 35 36 38 39 40 40 41 42 43 43 43 43 43 43 43 43 43 42 42 42 41 41 40 39 37 36 35 34 33 33 31 30 30 29 28 27 26 25 24 23 22
36 37 39 40 41 42 42 43 44 45 45 45 45 45 45 45 45 44 44 43 43 42 42 42 41 40 39 38 37 36 35 34 34 32 31 31 30 29 28 28 27 26 25
39 40 41 43 44 44 44 46 46 47 47 47 46 46 46 45 45 44 44 43 43 43 43 43 42 42 40 40 39 38 37 37 36 34 33 33 32 31 30 29 28 27 27
41 42 43 45 46 47 47 48 48 48 48 48 47 47 47 47 46 45 44 44 43 44 44 43 42 42 42 41 41 41 39 38 38 37 36 35 33 32 32 31 30 28 28
43 44 46 47 48 49 49 49 49 49 50 49 49 48 48 48 48 47 46 45 44 44 44 44 44 43 43 42 42 42 42 41 40 39 37 36 35 34 33 32 31 30 29
Wind_Direction
280 282 281 283 286 286 285 286 290 296 302 307 314 320 323 324 325 328 332 335 337 338 336 332 329 326 323 318 311 301 291 279 269 257 249 239 233 230 227 226 225 223 222
293 290 284 282 283 284 285 286 289 295 299 305 312 318 323 324 325 327 330 334 337 339 337 335 333 331 327 322 316 305 294 282 271 260 250 241 234 228 227 227 225 224 223
296 291 285 284 282 282 285 289 291 294 297 303 309 316 321 324 325 328 330 333 336 339 339 337 336 334 330 326 319 309 299 284 272 262 254 244 237 228 227 227 226 224 222
293 291 287 285 285 285 287 292 294 295 296 301 308 312 318 323 326 328 330 333 335 339 340 339 337 335 332 328 323 313 305 287 273 263 257 247 237 228 227 226 226 225 222
299 295 289 288 288 290 290 292 294 297 298 300 306 310 316 321 324 327 330 331 334 338 339 339 338 336 334 332 327 318 307 293 278 264 257 248 237 229 226 225 224 224 223
302 298 292 290 291 293 295 295 296 298 299 300 304 308 314 319 323 325 328 330 332 335 337 339 338 337 337 336 332 323 309 295 284 268 257 246 236 229 228 226 224 225 224
302 298 292 292 295 297 296 296 297 298 300 299 301 305 310 316 320 323 326 328 331 333 335 337 339 339 338 336 334 327 313 298 286 275 260 246 237 230 230 227 227 227 227
307 304 299 296 296 298 297 296 296 295 298 299 300 303 308 312 316 320 323 325 326 329 332 334 336 336 336 335 333 329 316 301 288 278 263 249 242 236 233 228 229 229 229
314 315 310 304 301 300 298 298 297 297 298 299 301 303 307 310 313 317 320 321 323 324 327 328 330 331 331 330 329 326 319 303 292 280 267 255 248 242 238 231 228 229 230
312 314 314 311 307 304 301 300 302 300 300 299 300 303 305 307 309 312 316 318 319 321 322 323 323 324 324 324 324 321 317 314 303 287 276 261 253 245 237 232 231 232 230
307 310 311 310 309 308 306 304 304 304 303 302 302 303 304 306 308 308 310 313 314 316 318 318 318 318 318 317 318 319 313 310 306 293 280 267 255 247 238 234 234 235 234
302 304 305 306 306 307 307 307 306 305 304 304 304 303 303 303 304 305 307 309 309 310 311 312 312 312 311 310 310 310 308 303 298 291 281 269 259 250 241 238 237 238 237
299 299 301 302 304 305 305 305 305 305 304 305 306 304 302 301 301 302 303 305 306 306 306 306 306 306 305 304 303 301 300 298 292 284 276 270 262 254 248 245 242 240 239
298 300 300 301 302 302 302 303 303 303 303 304 304 304 302 300 299 299 299 301 302 302 302 302 301 300 298 297 297 294 292 291 286 282 276 270 263 258 256 253 249 245 243
296 298 301 301 301 301 301 301 302 302 302 303 304 303 302 301 298 297 296 296 297 297 298 298 297 296 294 291 290 288 285 284 282 278 274 268 264 260 258 256 254 250 246
299 299 301 302 300 299 300 301 300 300 300 301 301 301 300 300 298 296 295 293 293 293 293 292 292 291 290 287 283 281 280 277 276 276 272 266 264 262 259 258 255 253 250
301 301 301 303 302 301 300 300 300 300 300 299 298 297 297 297 296 295 293 291 290 290 289 288 287 286 285 283 280 276 275 273 272 272 269 265 262 259 257 257 255 254 253
303 302 302 303 303 302 301 300 300 300 299 298 297 296 295 294 293 292 291 288 287 287 286 286 284 282 280 278 276 274 271 270 268 267 265 263 260 258 257 256 254 254 253
305 304 304 304 304 304 302 301 300 300 299 298 297 296 294 292 291 290 289 287 285 283 282 281 281 279 277 274 273 271 269 268 265 263 262 261 259 257 257 256 254 254 253
306 305 304 303 303 303 302 301 301 300 299 299 298 296 294 292 290 289 287 285 282 281 279 278 278 277 275 271 269 268 267 265 263 261 260 259 258 257 256 256 255 254 253
305 304 303 302 302 301 301 301 300 300 300 299 298 296 294 292 290 288 286 284 281 279 277 275 274 273 271 268 266 265 264 263 261 259 258 256 255 256 256 255 255 254 254
305 304 303 303 302 301 301 300 300 300 300 299 297 296 294 292 290 288 285 283 281 279 276 274 271 269 268 266 263 262 261 260 259 257 256 255 253 253 253 253 254 254 254
304 304 304 303 303 302 301 301 300 300 299 299 298 296 295 292 290 288 285 283 280 278 275 272 270 268 265 263 261 259 257 256 256 255 255 254 252 251 251 252 251 252 252
304 304 304 304 304 303 301 301 301 300 300 299 299 298 296 293 291 288 286 283 279 277 274 271 269 267 264 261 259 257 255 253 253 253 253 252 251 250 251 251 251 252 251
304 304 304 304 303 303 302 301 301 301 300 300 299 298 296 294 291 288 285 282 280 276 273 270 267 265 262 259 257 256 253 251 251 250 250 250 250 250 250 251 251 251 251
303 304 304 304 303 303 303 302 301 301 300 300 299 297 296 294 291 288 285 282 279 276 272 270 267 264 261 258 255 254 252 250 249 248 248 248 248 248 249 250 251 250 251